THORAD DELTA 1 DEB, 8163

Orbit data source: Space-Track

THORAD DELTA 1 DEB, 8163 is space debris in SSO originally from a launch on Fri, 15 Nov 1974 UTC launched from the Air Force Western Test Range (AFWTR). Debris objects in space refer to the collection of defunct objects orbiting the Earth. Examples of debris include non-operational satellites, rocket bodies, and fragments generated from explosions, collisions, or faulty payload assembly.

Loading next visibility...
Identifier
8163, 1974-089AD
Orbit
SSO
Country
Flag of USUS
Related business
Manufacturer
Unknown
Mission
Spacecraft
Bus & Motor
Unknown
Mass
Unknown
Launch date (UTC)
1974-11-15 (51 years ago)
Launch vehicle
Unknown
Launch site
Air Force Western Test Range (AFWTR)
Object type
Payload
Rocket body
Debris
Shape & HBR
Unknown
Radar Cross Section
Small (<0.1 m²)

Expand to show TLE details & history
Last TLE update: 4 days ago

TLE from 4 days ago
0 THORAD DELTA 1 DEB
1 08163U 74089AD  25239.31545871  .00000156  00000-0  12934-2 0  9994
2 08163 102.5034 249.0133 0324684 233.5053 123.5692 12.39071557274286
Epoch: 2025-08-27T07:34Z
TLE epoch observation values (Epoch: 2025-08-27T07:34:15.632Z)
Latitude
0.00007°
Longitude
159.65358°
Altitude
1,660.338 km
Speed
6.977 km/s
True Right ascension
16h 36m 03s
True Declination
0° 00' 00"
Sunlit
Object was in daylight at epoch
Visualization orbit readout
Latitude
Unknown
Longitude
Unknown
Altitude
Unknown
Speed
Unknown
Apparent Right ascension
Unknown
Apparent Declination
Unknown
Sunlit
N/A
Visualization observer readout
Local Sidereal Time
22:58:53
Azimuth
Unknown
Elevation
Unknown
Doppler factor
Unknown
Orbital elements
Apogee altitude
1,764.199 km
Perigee altitude
1,252.089 km
Semi-major axis
7,886.281 km
Eccentricity
0.03247
Inclination
102.5034°
RAAN
249.0133°
Arg. of periapsis
233.5053°
True anomaly
126.59977°
Mean anomaly
123.5692°
Eccentric anomaly
125.09137°
Mean motion
3.09909 °/min
Orbital period
116.16 mins
BSTAR
0.0012934
Loading maneuver chart data...
Computing Atmospheric mass density...
Loading historical data...
Loading historical data...
Loading historical data...
Loading historical data...
Loading historical data...
Loading historical data...
Loading historical data...

Documentation

Showing up to 5 results
|